Location: Lane
(33.5226°N, 79.8788°W)
Time: 20:46:48
(UTC+00:00)

Courier 1B Rocket - Pass Details

Date: 12 October 2022
Orbit: 920 x 1202 km, 28.3° (Epoch: 01 December)

Event Time Altitude Azimuth Distance (km) Brightness Sun altitude
Rises 19:14:12 0° 231° (SW) 4,087 9.2 38.8°
Reaches altitude 10° 19:17:20 10° 222° (SW) 3,117 8.9 38.4°
Maximum altitude 19:24:12 35° 160° (SSE) 1,794 7.1 37.4°
Drops below altitude 10° 19:30:50 10° 98° (E) 3,006 7.3 36.4°
Sets 19:33:48 0° 89° (E) 3,925 7.8 35.9°
